TimeEDT,TemperatureF,Dew PointF,Humidity,Sea Level PressureIn,VisibilityMPH,Wind Direction,Wind SpeedMPH,Gust SpeedMPH,PrecipitationIn,Events,Conditions,WindDirDegrees,DateUTC
12:53 AM,71.1,66.0,84,29.96,10.0,WSW,3.5,-,N/A,,Mostly Cloudy,240,2013-09-12 04:53:00
1:53 AM,71.1,66.9,87,29.95,8.0,SSW,8.1,-,0.07,Rain,Light Rain,210,2013-09-12 05:53:00
2:53 AM,71.1,66.9,87,29.93,10.0,SW,5.8,-,0.00,,Scattered Clouds,230,2013-09-12 06:53:00
3:53 AM,71.1,66.9,87,29.95,10.0,West,10.4,-,0.00,,Overcast,260,2013-09-12 07:53:00
4:53 AM,71.1,66.9,87,29.94,10.0,West,6.9,-,0.05,Rain,Light Rain,260,2013-09-12 08:53:00
5:08 AM,69.8,66.2,88,29.96,1.8,WSW,17.3,21.9,0.16,Rain,Heavy Rain,250,2013-09-12 09:08:00
5:19 AM,69.8,66.2,88,29.96,3.0,WSW,15.0,20.7,0.23,Rain,Rain,250,2013-09-12 09:19:00
5:53 AM,70.0,66.9,90,29.92,9.0,West,3.5,-,0.27,Rain,Light Rain,270,2013-09-12 09:53:00
6:53 AM,69.1,66.0,90,29.92,4.0,SSW,5.8,-,0.06,Rain,Rain,200,2013-09-12 10:53:00
7:53 AM,69.1,66.0,90,29.94,10.0,SW,5.8,-,0.01,,Mostly Cloudy,230,2013-09-12 11:53:00
8:53 AM,69.1,66.0,90,29.93,10.0,WSW,6.9,-,N/A,,Partly Cloudy,240,2013-09-12 12:53:00
9:03 AM,69.8,66.2,88,29.94,10.0,WSW,8.1,-,N/A,,Mostly Cloudy,240,2013-09-12 13:03:00
9:15 AM,69.8,66.2,88,29.93,8.0,WSW,8.1,-,N/A,,Mostly Cloudy,240,2013-09-12 13:15:00
9:32 AM,71.6,68.0,88,29.93,8.0,WSW,8.1,-,N/A,,Scattered Clouds,240,2013-09-12 13:32:00
9:53 AM,71.1,68.0,90,29.92,10.0,WSW,8.1,-,N/A,,Clear,250,2013-09-12 13:53:00
10:03 AM,71.6,68.0,88,29.93,10.0,West,6.9,-,N/A,,Partly Cloudy,260,2013-09-12 14:03:00
10:17 AM,71.6,68.0,88,29.94,10.0,West,11.5,-,N/A,,Mostly Cloudy,260,2013-09-12 14:17:00
10:31 AM,71.6,68.0,88,29.94,9.0,West,9.2,-,N/A,,Overcast,280,2013-09-12 14:31:00
10:53 AM,73.0,68.0,84,29.92,8.0,West,9.2,-,N/A,,Overcast,270,2013-09-12 14:53:00
11:32 AM,73.4,68.0,83,29.94,8.0,WNW,8.1,-,N/A,,Overcast,290,2013-09-12 15:32:00
11:53 AM,73.0,66.9,81,29.92,9.0,West,6.9,-,N/A,,Scattered Clouds,280,2013-09-12 15:53:00
12:12 PM,73.4,66.2,78,29.94,9.0,WNW,5.8,-,N/A,,Mostly Cloudy,290,2013-09-12 16:12:00
12:28 PM,73.4,66.2,78,29.94,10.0,WNW,10.4,-,N/A,,Mostly Cloudy,300,2013-09-12 16:28:00
12:53 PM,73.9,66.0,76,29.93,10.0,NW,12.7,-,N/A,,Partly Cloudy,310,2013-09-12 16:53:00
1:53 PM,73.9,63.0,68,29.91,10.0,NW,12.7,-,N/A,,Clear,310,2013-09-12 17:53:00
2:53 PM,77.0,57.0,50,29.89,10.0,NW,9.2,-,N/A,,Clear,320,2013-09-12 18:53:00
3:53 PM,79.0,55.9,45,29.87,10.0,NNW,8.1,-,N/A,,Clear,330,2013-09-12 19:53:00
4:53 PM,80.1,55.0,42,29.85,10.0,North,5.8,-,N/A,,Clear,350,2013-09-12 20:53:00
5:53 PM,78.1,55.0,45,29.84,10.0,NW,11.5,-,N/A,,Mostly Cloudy,320,2013-09-12 21:53:00
6:53 PM,75.9,53.1,45,29.84,10.0,NNW,8.1,-,N/A,,Partly Cloudy,340,2013-09-12 22:53:00
7:53 PM,73.0,53.1,49,29.87,10.0,NNW,21.9,28.8,N/A,,Overcast,340,2013-09-12 23:53:00
8:53 PM,63.0,55.9,78,29.93,10.0,NNW,9.2,-,0.01,Rain,Light Rain,330,2013-09-13 00:53:00
9:53 PM,63.0,57.0,81,29.94,10.0,NNW,4.6,-,0.08,,Overcast,340,2013-09-13 01:53:00
10:53 PM,62.1,55.0,78,29.95,10.0,North,8.1,-,N/A,,Overcast,350,2013-09-13 02:53:00
11:53 PM,61.0,50.0,67,29.96,10.0,North,11.5,21.9,N/A,,Clear,350,2013-09-13 03:53:00